Location: Newark
(44.3681°N, 100.3364°W)
Time: 20:37:50
(UTC+00:00)

Vanguard 1 - Pass Details

Date: 26 February 2020
Orbit: 649 x 3833 km, 34.2° (Epoch: 09 April)

Event Time Altitude Azimuth Distance (km) Brightness Sun altitude
Rises 13:46:26 0° 234° (SW) 7,842 14.3 3.0°
Reaches altitude 10° 13:51:54 10° 230° (SW) 6,917 14.1 4.0°
Maximum altitude 14:13:55 53° 163° (SSE) 3,908 13.6 7.7°
Drops below altitude 10° 14:29:31 10° 93° (E) 5,099 15.4 10.3°
Sets 14:32:48 0° 88° (E) 5,752 15.3 10.8°
